Time,TemperatureF,DewpointF,PressureIn,WindDirection,WindDirectionDegrees,WindSpeedMPH,WindSpeedGustMPH,Humidity,HourlyPrecipIn,Conditions,Clouds,dailyrainin,SoftwareType,DateUTC
2013-03-13 00:00:00,16.5,13.3,29.97,West,270,0.0,0.0,87,0.00,,SKC,0.00,VWS V14.01,2013-03-13 05:00:00,
2013-03-13 00:05:00,16.6,13.4,29.97,West,270,0.0,0.0,87,0.00,,SKC,0.00,VWS V14.01,2013-03-13 05:05:00,
2013-03-13 00:10:00,16.5,13.1,29.97,West,270,0.0,0.0,86,0.00,,SKC,0.00,VWS V14.01,2013-03-13 05:10:00,
2013-03-13 00:15:00,16.4,12.9,29.97,West,270,0.0,0.0,86,0.00,,SKC,0.00,VWS V14.01,2013-03-13 05:15:00,
2013-03-13 00:20:00,16.4,12.9,29.97,West,270,0.0,0.0,86,0.00,,SKC,0.00,VWS V14.01,2013-03-13 05:20:00,
2013-03-13 00:25:00,16.4,12.9,29.97,West,270,0.0,0.0,86,0.00,,SKC,0.00,VWS V14.01,2013-03-13 05:25:00,
2013-03-13 00:30:00,16.3,13.1,29.97,West,270,0.0,0.0,87,0.00,,SKC,0.00,VWS V14.01,2013-03-13 05:30:00,
2013-03-13 00:35:00,16.3,12.9,29.97,West,270,0.0,0.0,86,0.00,,SKC,0.00,VWS V14.01,2013-03-13 05:35:00,
2013-03-13 00:40:00,16.3,12.9,29.97,West,270,0.0,0.0,86,0.00,,SKC,0.00,VWS V14.01,2013-03-13 05:40:00,
2013-03-13 00:45:00,16.3,12.9,29.97,West,270,0.0,0.0,86,0.00,,SKC,0.00,VWS V14.01,2013-03-13 05:45:00,
2013-03-13 00:50:00,16.2,12.8,29.97,West,270,0.0,0.0,86,0.00,,SKC,0.00,VWS V14.01,2013-03-13 05:50:00,
2013-03-13 00:55:00,15.9,12.5,29.97,West,270,0.0,0.0,86,0.00,,SKC,0.00,VWS V14.01,2013-03-13 05:55:00,
2013-03-13 01:00:00,15.7,12.3,29.97,West,270,0.0,0.0,86,0.00,,SKC,0.00,VWS V14.01,2013-03-13 06:00:00,
2013-03-13 01:05:00,15.6,12.2,29.97,West,270,0.0,0.0,86,0.00,,SKC,0.00,VWS V14.01,2013-03-13 06:05:00,
2013-03-13 01:10:00,15.4,12.0,29.97,West,270,0.0,0.0,86,0.00,,SKC,0.00,VWS V14.01,2013-03-13 06:10:00,
2013-03-13 01:15:00,15.2,11.8,29.98,West,270,0.0,0.0,86,0.00,,SKC,0.00,VWS V14.01,2013-03-13 06:15:00,
2013-03-13 01:20:00,15.1,11.7,29.98,West,270,0.0,0.0,86,0.00,,SKC,0.00,VWS V14.01,2013-03-13 06:20:00,
2013-03-13 01:25:00,14.9,11.5,29.98,West,270,0.0,0.0,86,0.00,,SKC,0.00,VWS V14.01,2013-03-13 06:25:00,
2013-03-13 01:30:00,14.9,11.5,29.98,West,270,0.0,0.0,86,0.00,,SKC,0.00,VWS V14.01,2013-03-13 06:30:00,
2013-03-13 01:35:00,14.9,11.5,29.98,West,270,0.0,0.0,86,0.00,,SKC,0.00,VWS V14.01,2013-03-13 06:35:00,
2013-03-13 01:40:00,14.8,11.4,29.98,West,270,0.0,0.0,86,0.00,,SKC,0.00,VWS V14.01,2013-03-13 06:40:00,
2013-03-13 01:45:00,14.8,11.4,29.99,West,270,0.0,0.0,86,0.00,,SKC,0.00,VWS V14.01,2013-03-13 06:45:00,
2013-03-13 01:50:00,14.7,11.3,29.99,West,270,0.0,0.0,86,0.00,,SKC,0.00,VWS V14.01,2013-03-13 06:50:00,
2013-03-13 01:55:00,14.8,11.1,29.99,West,270,0.0,0.0,85,0.00,,SKC,0.00,VWS V14.01,2013-03-13 06:55:00,
2013-03-13 02:00:00,14.7,11.0,29.99,West,270,0.0,0.0,85,0.00,,SKC,0.00,VWS V14.01,2013-03-13 07:00:00,
2013-03-13 02:05:00,14.7,11.0,29.99,West,270,0.0,0.0,85,0.00,,SKC,0.00,VWS V14.01,2013-03-13 07:05:00,
2013-03-13 02:10:00,14.5,11.1,29.99,West,270,0.0,0.0,86,0.00,,SKC,0.00,VWS V14.01,2013-03-13 07:10:00,
2013-03-13 02:15:00,14.5,11.1,29.99,West,270,0.0,0.0,86,0.00,,SKC,0.00,VWS V14.01,2013-03-13 07:15:00,
2013-03-13 02:20:00,14.4,11.0,29.99,West,270,0.0,0.0,86,0.00,,SKC,0.00,VWS V14.01,2013-03-13 07:20:00,
2013-03-13 02:25:00,14.4,11.0,29.99,West,270,0.0,0.0,86,0.00,,SKC,0.00,VWS V14.01,2013-03-13 07:25:00,
2013-03-13 02:30:00,14.3,10.9,30.00,West,270,0.0,0.0,86,0.00,,SKC,0.00,VWS V14.01,2013-03-13 07:30:00,
2013-03-13 02:35:00,14.2,10.8,30.00,West,270,0.0,0.0,86,0.00,,SKC,0.00,VWS V14.01,2013-03-13 07:35:00,
2013-03-13 02:40:00,14.1,10.7,30.00,West,270,0.0,0.0,86,0.00,,SKC,0.00,VWS V14.01,2013-03-13 07:40:00,
2013-03-13 02:45:00,14.0,10.6,30.00,West,270,0.0,0.0,86,0.00,,SKC,0.00,VWS V14.01,2013-03-13 07:45:00,
2013-03-13 02:50:00,14.0,10.6,30.00,West,270,0.0,0.0,86,0.00,,SKC,0.00,VWS V14.01,2013-03-13 07:50:00,
2013-03-13 02:55:00,14.1,10.7,30.00,West,270,0.0,0.0,86,0.00,,SKC,0.00,VWS V14.01,2013-03-13 07:55:00,
2013-03-13 03:00:00,14.0,10.6,30.00,West,270,0.0,0.0,86,0.00,,SKC,0.00,VWS V14.01,2013-03-13 08:00:00,
2013-03-13 03:05:00,14.0,10.6,30.00,West,270,0.0,0.0,86,0.00,,SKC,0.00,VWS V14.01,2013-03-13 08:05:00,
2013-03-13 03:10:00,14.0,10.6,30.00,West,270,0.0,0.0,86,0.00,,SKC,0.00,VWS V14.01,2013-03-13 08:10:00,
2013-03-13 03:15:00,14.0,10.6,30.00,West,270,0.0,0.0,86,0.00,,SKC,0.00,VWS V14.01,2013-03-13 08:15:00,
2013-03-13 03:20:00,14.1,10.7,30.00,West,270,0.0,0.0,86,0.00,,SKC,0.00,VWS V14.01,2013-03-13 08:20:00,
2013-03-13 03:25:00,14.1,10.7,30.00,West,270,0.0,0.0,86,0.00,,SKC,0.00,VWS V14.01,2013-03-13 08:25:00,
2013-03-13 03:30:00,14.2,10.8,30.01,West,270,0.0,0.0,86,0.00,,SKC,0.00,VWS V14.01,2013-03-13 08:30:00,
2013-03-13 03:35:00,14.2,10.5,30.01,West,270,0.0,0.0,85,0.00,,SKC,0.00,VWS V14.01,2013-03-13 08:35:00,
2013-03-13 03:40:00,14.2,10.5,30.01,West,270,0.0,0.0,85,0.00,,SKC,0.00,VWS V14.01,2013-03-13 08:40:00,
2013-03-13 03:45:00,14.2,10.5,30.02,West,270,0.0,0.0,85,0.00,,SKC,0.00,VWS V14.01,2013-03-13 08:45:00,
2013-03-13 03:50:00,14.2,10.3,30.02,West,270,0.0,0.0,84,0.00,,SKC,0.00,VWS V14.01,2013-03-13 08:50:00,
2013-03-13 03:55:00,14.2,10.3,30.02,West,270,0.0,0.0,84,0.00,,SKC,0.00,VWS V14.01,2013-03-13 08:55:00,
2013-03-13 04:00:00,14.1,10.2,30.02,West,270,0.0,0.0,84,0.00,,SKC,0.00,VWS V14.01,2013-03-13 09:00:00,
2013-03-13 04:05:00,14.1,9.9,30.02,West,270,0.0,0.0,83,0.00,,SKC,0.00,VWS V14.01,2013-03-13 09:05:00,
2013-03-13 04:10:00,14.1,9.9,30.02,West,270,0.0,0.0,83,0.00,,SKC,0.00,VWS V14.01,2013-03-13 09:10:00,
2013-03-13 04:15:00,14.1,9.9,30.03,West,270,0.0,0.0,83,0.00,,SKC,0.00,VWS V14.01,2013-03-13 09:15:00,
2013-03-13 04:20:00,14.1,9.9,30.03,West,270,0.0,0.0,83,0.00,,SKC,0.00,VWS V14.01,2013-03-13 09:20:00,
2013-03-13 04:25:00,14.1,9.9,30.03,West,270,0.0,0.0,83,0.00,,SKC,0.00,VWS V14.01,2013-03-13 09:25:00,
2013-03-13 04:30:00,14.0,9.5,30.03,West,270,0.0,0.0,82,0.00,,SKC,0.00,VWS V14.01,2013-03-13 09:30:00,
2013-03-13 04:35:00,14.0,9.8,30.03,West,270,0.0,0.0,83,0.00,,SKC,0.00,VWS V14.01,2013-03-13 09:35:00,
2013-03-13 04:40:00,14.0,9.5,30.03,West,270,0.0,0.0,82,0.00,,SKC,0.00,VWS V14.01,2013-03-13 09:40:00,
2013-03-13 04:45:00,14.1,9.6,30.04,West,270,0.0,0.0,82,0.00,,SKC,0.00,VWS V14.01,2013-03-13 09:45:00,
2013-03-13 04:50:00,14.0,9.5,30.04,West,270,0.0,0.0,82,0.00,,SKC,0.00,VWS V14.01,2013-03-13 09:50:00,
2013-03-13 04:55:00,14.0,9.5,30.04,West,270,0.0,0.0,82,0.00,,SKC,0.00,VWS V14.01,2013-03-13 09:55:00,
2013-03-13 05:00:00,13.9,9.4,30.05,West,270,0.0,0.0,82,0.00,,SKC,0.00,VWS V14.01,2013-03-13 10:00:00,
2013-03-13 05:05:00,13.9,9.4,30.05,West,270,0.0,0.0,82,0.00,,SKC,0.00,VWS V14.01,2013-03-13 10:05:00,
2013-03-13 05:10:00,13.9,9.2,30.05,West,270,0.0,0.0,81,0.00,,SKC,0.00,VWS V14.01,2013-03-13 10:10:00,
2013-03-13 05:15:00,13.9,9.2,30.05,West,270,0.0,0.0,81,0.00,,SKC,0.00,VWS V14.01,2013-03-13 10:15:00,
2013-03-13 05:20:00,14.0,9.3,30.05,West,270,0.0,0.0,81,0.00,,SKC,0.00,VWS V14.01,2013-03-13 10:20:00,
2013-03-13 05:25:00,13.9,9.2,30.05,West,270,0.0,0.0,81,0.00,,SKC,0.00,VWS V14.01,2013-03-13 10:25:00,
2013-03-13 05:30:00,13.9,9.2,30.06,West,270,0.0,0.0,81,0.00,,SKC,0.00,VWS V14.01,2013-03-13 10:30:00,
2013-03-13 05:35:00,14.0,9.3,30.06,West,270,1.0,5.0,81,0.00,,SKC,0.00,VWS V14.01,2013-03-13 10:35:00,
2013-03-13 05:40:00,14.0,9.3,30.06,West,270,0.0,3.0,81,0.00,,SKC,0.00,VWS V14.01,2013-03-13 10:40:00,
2013-03-13 05:45:00,14.0,9.3,30.06,West,270,1.0,3.0,81,0.00,,SKC,0.00,VWS V14.01,2013-03-13 10:45:00,
2013-03-13 05:50:00,14.0,9.3,30.06,West,270,1.0,2.0,81,0.00,,SKC,0.00,VWS V14.01,2013-03-13 10:50:00,
2013-03-13 05:55:00,13.9,9.2,30.06,West,270,0.0,3.0,81,0.00,,SKC,0.00,VWS V14.01,2013-03-13 10:55:00,
2013-03-13 06:00:00,13.8,8.8,30.07,WNW,292,1.0,2.0,80,0.00,,SKC,0.00,VWS V14.01,2013-03-13 11:00:00,
2013-03-13 06:05:00,13.7,9.0,30.07,West,270,1.0,4.0,81,0.00,,SKC,0.00,VWS V14.01,2013-03-13 11:05:00,
2013-03-13 06:10:00,13.6,8.6,30.07,West,270,1.0,4.0,80,0.00,,SKC,0.00,VWS V14.01,2013-03-13 11:10:00,
2013-03-13 06:15:00,13.6,8.6,30.08,West,270,1.0,5.0,80,0.00,,SKC,0.00,VWS V14.01,2013-03-13 11:15:00,
2013-03-13 06:20:00,13.4,8.7,30.08,West,270,1.0,4.0,81,0.00,,SKC,0.00,VWS V14.01,2013-03-13 11:20:00,
2013-03-13 06:25:00,13.4,8.7,30.08,West,270,1.0,2.0,81,0.00,,SKC,0.00,VWS V14.01,2013-03-13 11:25:00,
2013-03-13 06:30:00,13.3,8.6,30.09,West,270,1.0,3.0,81,0.00,,SKC,0.00,VWS V14.01,2013-03-13 11:30:00,
2013-03-13 06:35:00,13.2,8.5,30.09,West,270,0.0,2.0,81,0.00,,SKC,0.00,VWS V14.01,2013-03-13 11:35:00,
2013-03-13 06:40:00,13.2,8.5,30.09,West,270,0.0,1.0,81,0.00,,SKC,0.00,VWS V14.01,2013-03-13 11:40:00,
2013-03-13 06:45:00,13.2,8.5,30.09,West,270,1.0,5.0,81,0.00,,SKC,0.00,VWS V14.01,2013-03-13 11:45:00,
2013-03-13 06:50:00,13.3,8.6,30.09,West,270,1.0,4.0,81,0.00,,SKC,0.00,VWS V14.01,2013-03-13 11:50:00,
2013-03-13 06:55:00,13.3,8.6,30.09,West,270,1.0,2.0,81,0.00,,SKC,0.00,VWS V14.01,2013-03-13 11:55:00,
2013-03-13 07:00:00,13.4,8.7,30.10,West,270,1.0,2.0,81,0.00,,SKC,0.00,VWS V14.01,2013-03-13 12:00:00,
2013-03-13 07:05:00,13.4,8.7,30.10,WNW,292,0.0,2.0,81,0.00,,SKC,0.00,VWS V14.01,2013-03-13 12:05:00,
2013-03-13 07:10:00,13.5,8.8,30.10,West,270,1.0,2.0,81,0.00,,SKC,0.00,VWS V14.01,2013-03-13 12:10:00,
2013-03-13 07:15:00,13.6,8.9,30.10,West,270,1.0,3.0,81,0.00,,SKC,0.00,VWS V14.01,2013-03-13 12:15:00,
2013-03-13 07:20:00,13.6,8.9,30.10,West,270,1.0,3.0,81,0.00,,SKC,0.00,VWS V14.01,2013-03-13 12:20:00,
2013-03-13 07:25:00,13.6,8.9,30.10,West,270,0.0,3.0,81,0.00,,SKC,0.00,VWS V14.01,2013-03-13 12:25:00,
2013-03-13 07:30:00,13.5,8.8,30.12,West,270,0.0,1.0,81,0.00,,SKC,0.00,VWS V14.01,2013-03-13 12:30:00,
2013-03-13 07:35:00,13.5,8.8,30.12,West,270,0.0,2.0,81,0.00,,SKC,0.00,VWS V14.01,2013-03-13 12:35:00,
2013-03-13 07:40:00,13.6,8.9,30.12,West,270,1.0,4.0,81,0.00,,SKC,0.00,VWS V14.01,2013-03-13 12:40:00,
2013-03-13 07:45:00,13.8,8.8,30.12,WNW,292,1.0,3.0,80,0.00,,SKC,0.00,VWS V14.01,2013-03-13 12:45:00,
2013-03-13 08:07:00,15.0,9.7,30.13,West,279,2.0,2.0,79,0.00,,SKC,0.00,VWS V14.01,2013-03-13 13:07:00,
2013-03-13 08:08:00,15.1,9.8,30.13,SW,229,1.0,2.0,79,0.00,,SKC,0.00,VWS V14.01,2013-03-13 13:08:00,
2013-03-13 08:09:00,15.1,9.8,30.13,West,269,3.0,3.0,79,0.00,,SKC,0.00,VWS V14.01,2013-03-13 13:09:00,
2013-03-13 08:10:00,15.2,9.9,30.13,West,265,1.0,3.0,79,0.00,,SKC,0.00,VWS V14.01,2013-03-13 13:10:00,
2013-03-13 08:11:00,15.2,9.9,30.13,WNW,286,1.0,3.0,79,0.00,,SKC,0.00,VWS V14.01,2013-03-13 13:11:00,
2013-03-13 08:12:00,15.2,9.9,30.13,WNW,283,1.0,3.0,79,0.00,,SKC,0.00,VWS V14.01,2013-03-13 13:12:00,
2013-03-13 08:13:00,15.2,9.9,30.13,WSW,254,1.0,3.0,79,0.00,,SKC,0.00,VWS V14.01,2013-03-13 13:13:00,
2013-03-13 08:14:00,15.3,9.7,30.13,WSW,255,0.0,3.0,78,0.00,,SKC,0.00,VWS V14.01,2013-03-13 13:14:00,
2013-03-13 08:15:00,15.3,9.7,30.14,WNW,300,3.0,4.0,78,0.00,,SKC,0.00,VWS V14.01,2013-03-13 13:15:00,
2013-03-13 08:16:00,15.4,9.8,30.14,West,271,3.0,3.0,78,0.00,,SKC,0.00,VWS V14.01,2013-03-13 13:16:00,
2013-03-13 08:17:00,15.5,9.9,30.14,West,273,2.0,3.0,78,0.00,,SKC,0.00,VWS V14.01,2013-03-13 13:17:00,
2013-03-13 08:18:00,15.6,10.0,30.14,West,273,3.0,3.0,78,0.00,,SKC,0.00,VWS V14.01,2013-03-13 13:18:00,
2013-03-13 08:19:00,15.7,10.1,30.14,WNW,283,2.0,4.0,78,0.00,,SKC,0.00,VWS V14.01,2013-03-13 13:19:00,
2013-03-13 08:20:00,15.7,10.1,30.14,West,267,1.0,4.0,78,0.00,,SKC,0.00,VWS V14.01,2013-03-13 13:20:00,
2013-03-13 08:21:00,15.8,10.2,30.14,WNW,283,0.0,2.0,78,0.00,,SKC,0.00,VWS V14.01,2013-03-13 13:21:00,
2013-03-13 08:22:00,15.9,10.3,30.14,WSW,256,1.0,2.0,78,0.00,,SKC,0.00,VWS V14.01,2013-03-13 13:22:00,
2013-03-13 08:23:00,16.0,10.4,30.14,NW,321,1.0,2.0,78,0.00,,SKC,0.00,VWS V14.01,2013-03-13 13:23:00,
2013-03-13 08:24:00,16.0,10.4,30.14,West,260,2.0,3.0,78,0.00,,SKC,0.00,VWS V14.01,2013-03-13 13:24:00,
2013-03-13 08:25:00,16.1,10.2,30.14,West,277,0.0,5.0,77,0.00,,SKC,0.00,VWS V14.01,2013-03-13 13:25:00,
2013-03-13 08:26:00,16.2,10.3,30.14,WNW,288,2.0,2.0,77,0.00,,SKC,0.00,VWS V14.01,2013-03-13 13:26:00,
2013-03-13 08:27:00,16.3,10.4,30.14,WSW,250,0.0,2.0,77,0.00,,SKC,0.00,VWS V14.01,2013-03-13 13:27:00,
2013-03-13 08:30:00,16.5,10.6,30.14,West,269,1.0,6.0,77,0.00,,SKC,0.00,VWS V14.01,2013-03-13 13:30:00,
2013-03-13 08:35:00,16.8,10.6,30.14,NNE,30,1.0,9.0,76,0.00,,SKC,0.00,VWS V14.01,2013-03-13 13:35:00,
2013-03-13 08:40:00,17.1,10.9,30.14,NW,306,1.0,5.0,76,0.00,,SKC,0.00,VWS V14.01,2013-03-13 13:40:00,
2013-03-13 08:45:00,17.5,10.6,30.15,WNW,300,1.0,4.0,74,0.00,,SKC,0.00,VWS V14.01,2013-03-13 13:45:00,
2013-03-13 08:50:00,17.9,11.0,30.15,West,275,3.0,7.0,74,0.00,,SKC,0.00,VWS V14.01,2013-03-13 13:50:00,
2013-03-13 08:55:00,18.1,10.9,30.15,WNW,290,1.0,7.0,73,0.00,,SKC,0.00,VWS V14.01,2013-03-13 13:55:00,
2013-03-13 09:00:00,18.4,10.9,30.16,ENE,68,3.0,6.0,72,0.00,,SKC,0.00,VWS V14.01,2013-03-13 14:00:00,
2013-03-13 09:05:00,18.9,11.7,30.16,NE,55,2.0,3.0,73,0.00,,SKC,0.00,VWS V14.01,2013-03-13 14:05:00,
2013-03-13 09:10:00,19.3,11.4,30.16,NNW,341,3.0,7.0,71,0.00,,SKC,0.00,VWS V14.01,2013-03-13 14:10:00,
2013-03-13 09:15:00,19.7,11.5,30.16,SE,144,2.0,9.0,70,0.00,,SKC,0.00,VWS V14.01,2013-03-13 14:15:00,
2013-03-13 09:20:00,19.9,11.4,30.16,WNW,285,2.0,6.0,69,0.00,,SKC,0.00,VWS V14.01,2013-03-13 14:20:00,
2013-03-13 09:25:00,16.0,10.4,30.14,WNW,295,1.0,2.0,78,0.00,,SKC,0.00,VWS V14.01,2013-03-13 14:25:00,
2013-03-13 09:30:00,16.4,10.8,30.14,WNW,289,6.0,6.0,78,0.00,,SKC,0.00,VWS V14.01,2013-03-13 14:30:00,
2013-03-13 09:35:00,16.7,10.5,30.14,WSW,241,0.0,9.0,76,0.00,,SKC,0.00,VWS V14.01,2013-03-13 14:35:00,
2013-03-13 09:40:00,17.0,10.8,30.14,NE,50,1.0,5.0,76,0.00,,SKC,0.00,VWS V14.01,2013-03-13 14:40:00,
2013-03-13 09:45:00,17.4,10.9,30.14,WNW,289,3.0,4.0,75,0.00,,SKC,0.00,VWS V14.01,2013-03-13 14:45:00,
2013-03-13 09:50:00,21.7,12.1,30.17,SE,142,1.0,10.0,66,0.00,,SKC,0.00,VWS V14.01,2013-03-13 14:50:00,
2013-03-13 09:51:00,17.8,11.2,30.15,West,280,1.0,3.0,75,0.00,,SKC,0.00,VWS V14.01,2013-03-13 14:51:00,
2013-03-13 09:55:00,21.9,11.9,30.17,West,269,3.0,5.0,65,0.00,,SKC,0.00,VWS V14.01,2013-03-13 14:55:00,
2013-03-13 09:56:00,18.0,10.8,30.15,West,281,3.0,6.0,73,0.00,,SKC,0.00,VWS V14.01,2013-03-13 14:56:00,
2013-03-13 10:00:00,22.0,12.1,30.17,West,280,0.0,6.0,65,0.00,,SKC,0.00,VWS V14.01,2013-03-13 15:00:00,
2013-03-13 10:01:00,18.2,10.7,30.15,West,274,2.0,6.0,72,0.00,,SKC,0.00,VWS V14.01,2013-03-13 15:01:00,
2013-03-13 10:05:00,22.2,10.8,30.17,West,276,1.0,6.0,61,0.00,,SKC,0.00,VWS V14.01,2013-03-13 15:05:00,
2013-03-13 10:06:00,18.7,11.2,30.16,WNW,294,2.0,3.0,72,0.00,,SKC,0.00,VWS V14.01,2013-03-13 15:06:00,
2013-03-13 10:10:00,22.2,10.4,30.17,WNW,288,1.0,7.0,60,0.00,,SKC,0.00,VWS V14.01,2013-03-13 15:10:00,
2013-03-13 10:11:00,19.2,11.7,30.16,WNW,283,2.0,7.0,72,0.00,,SKC,0.00,VWS V14.01,2013-03-13 15:11:00,
2013-03-13 10:15:00,22.5,10.4,30.17,WNW,296,3.0,6.0,59,0.00,,SKC,0.00,VWS V14.01,2013-03-13 15:15:00,
2013-03-13 10:16:00,19.6,11.4,30.16,NE,44,3.0,6.0,70,0.00,,SKC,0.00,VWS V14.01,2013-03-13 15:16:00,
2013-03-13 10:20:00,22.8,9.9,30.17,WSW,254,0.0,7.0,57,0.00,,SKC,0.00,VWS V14.01,2013-03-13 15:20:00,
2013-03-13 10:21:00,19.9,11.4,30.16,WSW,254,1.0,6.0,69,0.00,,SKC,0.00,VWS V14.01,2013-03-13 15:21:00,
2013-03-13 10:25:00,23.1,10.5,30.17,NE,41,6.0,7.0,58,0.00,,SKC,0.00,VWS V14.01,2013-03-13 15:25:00,
2013-03-13 10:26:00,20.1,11.2,30.16,WNW,301,2.0,5.0,68,0.00,,SKC,0.00,VWS V14.01,2013-03-13 15:26:00,
2013-03-13 10:30:00,23.1,9.8,30.18,West,259,4.0,6.0,56,0.00,,SKC,0.00,VWS V14.01,2013-03-13 15:30:00,
2013-03-13 10:31:00,20.6,11.7,30.16,East,81,3.0,7.0,68,0.00,,SKC,0.00,VWS V14.01,2013-03-13 15:31:00,
2013-03-13 10:35:00,23.2,10.6,30.18,West,278,3.0,6.0,58,0.00,,SKC,0.00,VWS V14.01,2013-03-13 15:35:00,
2013-03-13 10:36:00,21.1,11.5,30.17,WNW,294,2.0,6.0,66,0.00,,SKC,0.00,VWS V14.01,2013-03-13 15:36:00,
2013-03-13 10:40:00,23.3,9.9,30.18,WSW,253,4.0,8.0,56,0.00,,SKC,0.00,VWS V14.01,2013-03-13 15:40:00,
2013-03-13 10:42:00,21.2,11.3,30.17,East,81,0.0,5.0,65,0.00,,SKC,0.00,VWS V14.01,2013-03-13 15:42:00,
2013-03-13 10:45:00,23.8,11.2,30.18,NE,35,4.0,6.0,58,0.00,,SKC,0.00,VWS V14.01,2013-03-13 15:45:00,
2013-03-13 10:47:00,21.4,11.5,30.17,NNW,331,5.0,5.0,65,0.00,,SKC,0.00,VWS V14.01,2013-03-13 15:47:00,
2013-03-13 10:50:00,24.4,10.6,30.18,NW,319,0.0,6.0,55,0.00,,SKC,0.00,VWS V14.01,2013-03-13 15:50:00,
2013-03-13 10:52:00,21.7,11.8,30.17,West,280,1.0,10.0,65,0.00,,SKC,0.00,VWS V14.01,2013-03-13 15:52:00,
2013-03-13 10:55:00,24.7,10.0,30.18,NW,313,2.0,6.0,53,0.00,,SKC,0.00,VWS V14.01,2013-03-13 15:55:00,
2013-03-13 10:57:00,21.9,12.0,30.17,WSW,248,2.0,5.0,65,0.00,,SKC,0.00,VWS V14.01,2013-03-13 15:57:00,
2013-03-13 11:00:00,25.1,10.8,30.18,West,280,1.0,7.0,54,0.00,,SKC,0.00,VWS V14.01,2013-03-13 16:00:00,
2013-03-13 11:02:00,21.9,12.0,30.17,West,280,0.0,6.0,65,0.00,,SKC,0.00,VWS V14.01,2013-03-13 16:02:00,
2013-03-13 11:05:00,25.4,10.7,30.18,WNW,289,2.0,7.0,53,0.00,,SKC,0.00,VWS V14.01,2013-03-13 16:05:00,
2013-03-13 11:07:00,22.2,10.8,30.17,WNW,287,1.0,6.0,61,0.00,,SKC,0.00,VWS V14.01,2013-03-13 16:07:00,
2013-03-13 11:10:00,25.8,11.0,30.18,West,268,3.0,6.0,53,0.00,,SKC,0.00,VWS V14.01,2013-03-13 16:10:00,
2013-03-13 11:12:00,22.2,10.4,30.17,WNW,288,1.0,7.0,60,0.00,,SKC,0.00,VWS V14.01,2013-03-13 16:12:00,
2013-03-13 11:15:00,26.2,10.6,30.18,SW,232,3.0,7.0,51,0.00,,SKC,0.00,VWS V14.01,2013-03-13 16:15:00,
2013-03-13 11:17:00,22.5,10.4,30.17,WNW,296,3.0,6.0,59,0.00,,SKC,0.00,VWS V14.01,2013-03-13 16:17:00,
2013-03-13 11:20:00,26.4,11.2,30.18,WNW,295,1.0,5.0,52,0.00,,SKC,0.00,VWS V14.01,2013-03-13 16:20:00,
2013-03-13 11:22:00,22.8,9.9,30.17,WSW,258,0.0,0.0,57,0.00,,SKC,0.00,VWS V14.01,2013-03-13 16:22:00,
2013-03-13 11:25:00,27.0,12.2,30.18,WNW,289,2.0,3.0,53,0.00,,SKC,0.00,VWS V14.01,2013-03-13 16:25:00,
2013-03-13 11:27:00,23.1,10.5,30.17,NNE,17,4.0,6.0,58,0.00,,SKC,0.00,VWS V14.01,2013-03-13 16:27:00,
2013-03-13 11:30:00,27.3,11.1,30.17,WNW,291,1.0,6.0,50,0.00,,SKC,0.00,VWS V14.01,2013-03-13 16:30:00,
2013-03-13 11:32:00,23.2,9.8,30.18,West,281,5.0,5.0,56,0.00,,SKC,0.00,VWS V14.01,2013-03-13 16:32:00,
2013-03-13 11:35:00,27.4,10.3,30.17,West,272,0.0,5.0,48,0.00,,SKC,0.00,VWS V14.01,2013-03-13 16:35:00,
2013-03-13 11:37:00,23.2,10.6,30.18,West,263,5.0,5.0,58,0.00,,SKC,0.00,VWS V14.01,2013-03-13 16:37:00,
2013-03-13 11:40:00,27.8,11.6,30.17,West,277,1.0,9.0,50,0.00,,SKC,0.00,VWS V14.01,2013-03-13 16:40:00,
2013-03-13 11:42:00,23.3,9.9,30.18,SW,233,3.0,4.0,56,0.00,,SKC,0.00,VWS V14.01,2013-03-13 16:42:00,
2013-03-13 11:45:00,28.3,12.1,30.18,SW,229,2.0,4.0,50,0.00,,SKC,0.00,VWS V14.01,2013-03-13 16:45:00,
2013-03-13 11:47:00,23.8,11.2,30.18,WNW,284,2.0,4.0,58,0.00,,SKC,0.00,VWS V14.01,2013-03-13 16:47:00,
2013-03-13 11:50:00,28.0,10.9,30.18,West,279,3.0,13.0,48,0.00,,SKC,0.00,VWS V14.01,2013-03-13 16:50:00,
2013-03-13 11:52:00,24.4,10.6,30.18,NW,319,0.0,0.0,55,0.00,,SKC,0.00,VWS V14.01,2013-03-13 16:52:00,
2013-03-13 11:55:00,28.1,11.9,30.18,WNW,293,4.0,8.0,50,0.00,,SKC,0.00,VWS V14.01,2013-03-13 16:55:00,
2013-03-13 11:57:00,24.7,10.0,30.18,NNE,22,2.0,2.0,53,0.00,,SKC,0.00,VWS V14.01,2013-03-13 16:57:00,
2013-03-13 12:00:00,28.3,12.1,30.18,NNW,342,1.0,8.0,50,0.00,,SKC,0.00,VWS V14.01,2013-03-13 17:00:00,
2013-03-13 12:02:00,25.1,10.8,30.18,WSW,250,2.0,4.0,54,0.00,,SKC,0.00,VWS V14.01,2013-03-13 17:02:00,
2013-03-13 12:05:00,28.5,11.3,30.18,NNE,22,2.0,7.0,48,0.00,,SKC,0.00,VWS V14.01,2013-03-13 17:05:00,
2013-03-13 12:07:00,25.4,10.7,30.18,WSW,253,3.0,4.0,53,0.00,,SKC,0.00,VWS V14.01,2013-03-13 17:07:00,
2013-03-13 12:10:00,28.8,11.6,30.18,WNW,290,1.0,5.0,48,0.00,,SKC,0.00,VWS V14.01,2013-03-13 17:10:00,
2013-03-13 12:12:00,25.8,11.0,30.18,NW,323,1.0,4.0,53,0.00,,SKC,0.00,VWS V14.01,2013-03-13 17:12:00,
2013-03-13 12:15:00,29.1,10.4,30.18,West,281,3.0,8.0,45,0.00,,SKC,0.00,VWS V14.01,2013-03-13 17:15:00,
2013-03-13 12:17:00,26.2,10.6,30.18,WSW,242,3.0,3.0,51,0.00,,SKC,0.00,VWS V14.01,2013-03-13 17:17:00,
2013-03-13 12:20:00,28.8,9.6,30.18,WNW,288,4.0,8.0,44,0.00,,SKC,0.00,VWS V14.01,2013-03-13 17:20:00,
2013-03-13 12:22:00,26.5,11.3,30.18,WNW,297,1.0,2.0,52,0.00,,SKC,0.00,VWS V14.01,2013-03-13 17:22:00,
2013-03-13 12:25:00,29.0,9.8,30.18,NW,306,1.0,6.0,44,0.00,,SKC,0.00,VWS V14.01,2013-03-13 17:25:00,
2013-03-13 12:27:00,27.1,12.2,30.18,NW,316,1.0,4.0,53,0.00,,SKC,0.00,VWS V14.01,2013-03-13 17:27:00,
2013-03-13 12:30:00,29.4,11.7,30.17,NE,48,3.0,4.0,47,0.00,,SKC,0.00,VWS V14.01,2013-03-13 17:30:00,
2013-03-13 12:33:00,27.3,11.1,30.17,West,259,0.0,5.0,50,0.00,,SKC,0.00,VWS V14.01,2013-03-13 17:33:00,
2013-03-13 12:35:00,29.7,11.5,30.17,WNW,284,2.0,6.0,46,0.00,,SKC,0.00,VWS V14.01,2013-03-13 17:35:00,
2013-03-13 12:38:00,27.5,10.4,30.17,West,275,0.0,1.0,48,0.00,,SKC,0.00,VWS V14.01,2013-03-13 17:38:00,
2013-03-13 12:40:00,29.5,9.8,30.17,West,259,0.0,4.0,43,0.00,,SKC,0.00,VWS V14.01,2013-03-13 17:40:00,
2013-03-13 12:43:00,27.9,11.7,30.17,West,279,2.0,2.0,50,0.00,,SKC,0.00,VWS V14.01,2013-03-13 17:43:00,
2013-03-13 12:45:00,30.1,11.8,30.17,West,265,2.0,5.0,46,0.00,,SKC,0.00,VWS V14.01,2013-03-13 17:45:00,
2013-03-13 12:48:00,28.2,12.0,30.18,WSW,252,1.0,4.0,50,0.00,,SKC,0.00,VWS V14.01,2013-03-13 17:48:00,
2013-03-13 12:50:00,30.0,10.2,30.17,West,279,2.0,9.0,43,0.00,,SKC,0.00,VWS V14.01,2013-03-13 17:50:00,
2013-03-13 12:53:00,28.0,10.9,30.18,West,268,4.0,8.0,48,0.00,,SKC,0.00,VWS V14.01,2013-03-13 17:53:00,
2013-03-13 12:55:00,30.0,10.2,30.17,WNW,296,2.0,8.0,43,0.00,,SKC,0.00,VWS V14.01,2013-03-13 17:55:00,
2013-03-13 12:58:00,28.1,11.9,30.18,West,277,5.0,8.0,50,0.00,,SKC,0.00,VWS V14.01,2013-03-13 17:58:00,
2013-03-13 13:00:00,29.8,10.6,30.17,WSW,246,2.0,9.0,44,0.00,,SKC,0.00,VWS V14.01,2013-03-13 18:00:00,
2013-03-13 13:03:00,28.4,11.7,30.18,WNW,294,1.0,6.0,49,0.00,,SKC,0.00,VWS V14.01,2013-03-13 18:03:00,
2013-03-13 13:05:00,29.9,11.2,30.17,West,279,5.0,6.0,45,0.00,,SKC,0.00,VWS V14.01,2013-03-13 18:05:00,
2013-03-13 13:08:00,28.6,11.9,30.18,WNW,290,5.0,5.0,49,0.00,,SKC,0.00,VWS V14.01,2013-03-13 18:08:00,
2013-03-13 13:10:00,29.9,10.1,30.17,WSW,245,2.0,6.0,43,0.00,,SKC,0.00,VWS V14.01,2013-03-13 18:10:00,
2013-03-13 13:13:00,28.9,11.7,30.18,NNE,17,1.0,2.0,48,0.00,,SKC,0.00,VWS V14.01,2013-03-13 18:13:00,
2013-03-13 13:15:00,29.9,10.1,30.17,WSW,249,3.0,9.0,43,0.00,,SKC,0.00,VWS V14.01,2013-03-13 18:15:00,
2013-03-13 13:18:00,29.0,10.3,30.18,ENE,58,1.0,3.0,45,0.00,,SKC,0.00,VWS V14.01,2013-03-13 18:18:00,
2013-03-13 13:20:00,30.0,10.7,30.17,West,259,4.0,9.0,44,0.00,,SKC,0.00,VWS V14.01,2013-03-13 18:20:00,
2013-03-13 13:23:00,28.8,9.6,30.18,NE,36,3.0,4.0,44,0.00,,SKC,0.00,VWS V14.01,2013-03-13 18:23:00,
2013-03-13 13:25:00,30.2,10.4,30.17,WNW,292,2.0,7.0,43,0.00,,SKC,0.00,VWS V14.01,2013-03-13 18:25:00,
2013-03-13 13:28:00,29.0,10.3,30.18,WSW,244,1.0,2.0,45,0.00,,SKC,0.00,VWS V14.01,2013-03-13 18:28:00,
2013-03-13 13:30:00,30.2,9.4,30.17,WNW,286,1.0,7.0,41,0.00,,SKC,0.00,VWS V14.01,2013-03-13 18:30:00,
2013-03-13 13:33:00,29.5,11.3,30.17,NE,51,2.0,3.0,46,0.00,,SKC,0.00,VWS V14.01,2013-03-13 18:33:00,
2013-03-13 13:35:00,30.4,9.5,30.17,West,271,2.0,6.0,41,0.00,,SKC,0.00,VWS V14.01,2013-03-13 18:35:00,
2013-03-13 13:38:00,29.7,11.5,30.17,NW,317,2.0,3.0,46,0.00,,SKC,0.00,VWS V14.01,2013-03-13 18:38:00,
2013-03-13 13:40:00,30.6,9.7,30.17,WNW,285,6.0,6.0,41,0.00,,SKC,0.00,VWS V14.01,2013-03-13 18:40:00,
2013-03-13 13:43:00,29.6,11.4,30.17,West,277,4.0,4.0,46,0.00,,SKC,0.00,VWS V14.01,2013-03-13 18:43:00,
2013-03-13 13:45:00,30.7,10.9,30.17,WSW,250,4.0,7.0,43,0.00,,SKC,0.00,VWS V14.01,2013-03-13 18:45:00,
2013-03-13 13:48:00,30.2,11.4,30.17,WSW,242,4.0,4.0,45,0.00,,SKC,0.00,VWS V14.01,2013-03-13 18:48:00,
2013-03-13 13:50:00,30.4,11.1,30.17,WSW,249,2.0,9.0,44,0.00,,SKC,0.00,VWS V14.01,2013-03-13 18:50:00,
2013-03-13 13:53:00,30.0,10.7,30.17,NW,312,1.0,2.0,44,0.00,,SKC,0.00,VWS V14.01,2013-03-13 18:53:00,
2013-03-13 13:55:00,30.5,11.7,30.17,West,266,2.0,8.0,45,0.00,,SKC,0.00,VWS V14.01,2013-03-13 18:55:00,
2013-03-13 13:58:00,30.0,10.7,30.17,WNW,289,8.0,9.0,44,0.00,,SKC,0.00,VWS V14.01,2013-03-13 18:58:00,
2013-03-13 14:00:00,30.5,10.7,30.17,West,279,8.0,12.0,43,0.00,,SKC,0.00,VWS V14.01,2013-03-13 19:00:00,
2013-03-13 14:03:00,29.8,11.1,30.17,WNW,293,1.0,2.0,45,0.00,,SKC,0.00,VWS V14.01,2013-03-13 19:03:00,
2013-03-13 14:05:00,30.8,12.5,30.17,WSW,249,1.0,9.0,46,0.00,,SKC,0.00,VWS V14.01,2013-03-13 19:05:00,
2013-03-13 14:08:00,29.8,10.1,30.17,West,277,2.0,6.0,43,0.00,,SKC,0.00,VWS V14.01,2013-03-13 19:08:00,
2013-03-13 14:10:00,31.1,12.8,30.17,WNW,285,3.0,5.0,46,0.00,,SKC,0.00,VWS V14.01,2013-03-13 19:10:00,
2013-03-13 14:13:00,29.9,10.1,30.17,WNW,294,1.0,3.0,43,0.00,,SKC,0.00,VWS V14.01,2013-03-13 19:13:00,
2013-03-13 14:15:00,31.3,12.4,30.18,WNW,296,3.0,5.0,45,0.00,,SKC,0.00,VWS V14.01,2013-03-13 19:15:00,
2013-03-13 14:18:00,29.8,11.1,30.17,WNW,300,2.0,9.0,45,0.00,,SKC,0.00,VWS V14.01,2013-03-13 19:18:00,
2013-03-13 14:20:00,31.2,12.4,30.18,WNW,283,2.0,6.0,45,0.00,,SKC,0.00,VWS V14.01,2013-03-13 19:20:00,
2013-03-13 14:23:00,30.0,10.7,30.17,WNW,292,3.0,6.0,44,0.00,,SKC,0.00,VWS V14.01,2013-03-13 19:23:00,
2013-03-13 14:25:00,30.9,11.1,30.18,West,267,2.0,10.0,43,0.00,,SKC,0.00,VWS V14.01,2013-03-13 19:25:00,
2013-03-13 14:28:00,30.3,10.5,30.17,SW,227,2.0,2.0,43,0.00,,SKC,0.00,VWS V14.01,2013-03-13 19:28:00,
2013-03-13 14:30:00,30.9,11.1,30.17,West,271,2.0,6.0,43,0.00,,SKC,0.00,VWS V14.01,2013-03-13 19:30:00,
2013-03-13 14:33:00,30.3,9.4,30.17,WNW,284,3.0,3.0,41,0.00,,SKC,0.00,VWS V14.01,2013-03-13 19:33:00,
2013-03-13 14:35:00,30.9,11.1,30.17,WNW,303,1.0,8.0,43,0.00,,SKC,0.00,VWS V14.01,2013-03-13 19:35:00,
2013-03-13 14:38:00,30.5,10.7,30.17,NW,317,1.0,4.0,43,0.00,,SKC,0.00,VWS V14.01,2013-03-13 19:38:00,
2013-03-13 14:40:00,30.8,11.5,30.17,NNE,27,0.0,11.0,44,0.00,,SKC,0.00,VWS V14.01,2013-03-13 19:40:00,
2013-03-13 14:43:00,30.5,10.7,30.17,West,281,3.0,6.0,43,0.00,,SKC,0.00,VWS V14.01,2013-03-13 19:43:00,
2013-03-13 14:45:00,31.2,11.8,30.18,West,268,2.0,4.0,44,0.00,,SKC,0.00,VWS V14.01,2013-03-13 19:45:00,
2013-03-13 14:48:00,30.6,10.2,30.17,WNW,286,6.0,9.0,42,0.00,,SKC,0.00,VWS V14.01,2013-03-13 19:48:00,
2013-03-13 14:50:00,30.9,12.1,30.18,WSW,250,2.0,12.0,45,0.00,,SKC,0.00,VWS V14.01,2013-03-13 19:50:00,
2013-03-13 14:53:00,30.5,11.7,30.17,WSW,257,3.0,4.0,45,0.00,,SKC,0.00,VWS V14.01,2013-03-13 19:53:00,
2013-03-13 14:55:00,30.8,12.0,30.18,WNW,292,2.0,11.0,45,0.00,,SKC,0.00,VWS V14.01,2013-03-13 19:55:00,
2013-03-13 14:58:00,30.6,11.8,30.17,NNW,341,2.0,12.0,45,0.00,,SKC,0.00,VWS V14.01,2013-03-13 19:58:00,
2013-03-13 15:00:00,31.1,13.7,30.18,West,281,3.0,7.0,48,0.00,,SKC,0.00,VWS V14.01,2013-03-13 20:00:00,
2013-03-13 15:03:00,30.4,11.1,30.17,WSW,252,2.0,9.0,44,0.00,,SKC,0.00,VWS V14.01,2013-03-13 20:03:00,
2013-03-13 15:05:00,31.2,12.8,30.18,West,279,3.0,8.0,46,0.00,,SKC,0.00,VWS V14.01,2013-03-13 20:05:00,
2013-03-13 15:08:00,30.9,12.6,30.17,WSW,250,0.0,1.0,46,0.00,,SKC,0.00,VWS V14.01,2013-03-13 20:08:00,
2013-03-13 15:10:00,30.9,13.1,30.18,WNW,288,4.0,8.0,47,0.00,,SKC,0.00,VWS V14.01,2013-03-13 20:10:00,
2013-03-13 15:13:00,31.1,12.2,30.17,WSW,252,2.0,3.0,45,0.00,,SKC,0.00,VWS V14.01,2013-03-13 20:13:00,
2013-03-13 15:15:00,30.7,12.9,30.18,West,265,3.0,8.0,47,0.00,,SKC,0.00,VWS V14.01,2013-03-13 20:15:00,
2013-03-13 15:18:00,31.2,11.3,30.18,West,265,1.0,5.0,43,0.00,,SKC,0.00,VWS V14.01,2013-03-13 20:18:00,
2013-03-13 15:20:00,30.4,13.1,30.18,West,263,1.0,8.0,48,0.00,,SKC,0.00,VWS V14.01,2013-03-13 20:20:00,
2013-03-13 15:23:00,31.3,12.9,30.18,West,280,5.0,7.0,46,0.00,,SKC,0.00,VWS V14.01,2013-03-13 20:23:00,
2013-03-13 15:25:00,30.3,13.0,30.18,WNW,290,4.0,9.0,48,0.00,,SKC,0.00,VWS V14.01,2013-03-13 20:25:00,
2013-03-13 15:28:00,30.8,12.0,30.18,WNW,285,3.0,4.0,45,0.00,,SKC,0.00,VWS V14.01,2013-03-13 20:28:00,
2013-03-13 15:30:00,30.1,12.3,30.18,WNW,286,2.0,7.0,47,0.00,,SKC,0.00,VWS V14.01,2013-03-13 20:30:00,
2013-03-13 15:33:00,30.8,11.0,30.17,WNW,290,4.0,4.0,43,0.00,,SKC,0.00,VWS V14.01,2013-03-13 20:33:00,
2013-03-13 15:35:00,30.2,14.3,30.18,WNW,302,2.0,5.0,51,0.00,,SKC,0.00,VWS V14.01,2013-03-13 20:35:00,
2013-03-13 15:38:00,30.8,11.0,30.17,WNW,283,5.0,5.0,43,0.00,,SKC,0.00,VWS V14.01,2013-03-13 20:38:00,
2013-03-13 15:40:00,30.2,13.4,30.18,West,279,2.0,6.0,49,0.00,,SKC,0.00,VWS V14.01,2013-03-13 20:40:00,
2013-03-13 15:43:00,30.9,11.6,30.17,WSW,245,1.0,3.0,44,0.00,,SKC,0.00,VWS V14.01,2013-03-13 20:43:00,
2013-03-13 15:45:00,30.3,13.4,30.18,WSW,245,2.0,7.0,49,0.00,,SKC,0.00,VWS V14.01,2013-03-13 20:45:00,
2013-03-13 15:48:00,31.2,12.4,30.18,WSW,248,2.0,3.0,45,0.00,,SKC,0.00,VWS V14.01,2013-03-13 20:48:00,
2013-03-13 15:50:00,30.3,12.5,30.18,WNW,283,2.0,8.0,47,0.00,,SKC,0.00,VWS V14.01,2013-03-13 20:50:00,
2013-03-13 15:53:00,30.8,11.5,30.18,WSW,257,3.0,11.0,44,0.00,,SKC,0.00,VWS V14.01,2013-03-13 20:53:00,
2013-03-13 15:55:00,30.1,11.8,30.18,WNW,289,2.0,7.0,46,0.00,,SKC,0.00,VWS V14.01,2013-03-13 20:55:00,
2013-03-13 15:59:00,31.0,14.1,30.18,West,263,3.0,3.0,49,0.00,,SKC,0.00,VWS V14.01,2013-03-13 20:59:00,
2013-03-13 16:00:00,30.1,13.3,30.18,West,280,2.0,3.0,49,0.00,,SKC,0.00,VWS V14.01,2013-03-13 21:00:00,
2013-03-13 16:04:00,31.1,12.8,30.18,WSW,256,2.0,8.0,46,0.00,,SKC,0.00,VWS V14.01,2013-03-13 21:04:00,
2013-03-13 16:05:00,30.2,12.4,30.18,West,277,2.0,4.0,47,0.00,,SKC,0.00,VWS V14.01,2013-03-13 21:05:00,
2013-03-13 16:09:00,31.2,12.8,30.18,West,268,4.0,5.0,46,0.00,,SKC,0.00,VWS V14.01,2013-03-13 21:09:00,
2013-03-13 16:10:00,30.2,12.9,30.18,WNW,300,1.0,5.0,48,0.00,,SKC,0.00,VWS V14.01,2013-03-13 21:10:00,
2013-03-13 16:14:00,30.8,12.5,30.18,WNW,284,3.0,4.0,46,0.00,,SKC,0.00,VWS V14.01,2013-03-13 21:14:00,
2013-03-13 16:15:00,30.2,12.4,30.19,NNE,23,2.0,5.0,47,0.00,,SKC,0.00,VWS V14.01,2013-03-13 21:15:00,
2013-03-13 16:19:00,30.6,12.8,30.18,WSW,240,2.0,7.0,47,0.00,,SKC,0.00,VWS V14.01,2013-03-13 21:19:00,
2013-03-13 16:20:00,30.2,13.4,30.19,West,271,2.0,5.0,49,0.00,,SKC,0.00,VWS V14.01,2013-03-13 21:20:00,
2013-03-13 16:24:00,30.5,12.7,30.18,SW,236,1.0,3.0,47,0.00,,SKC,0.00,VWS V14.01,2013-03-13 21:24:00,
2013-03-13 16:25:00,30.3,13.0,30.19,WNW,282,2.0,5.0,48,0.00,,SKC,0.00,VWS V14.01,2013-03-13 21:25:00,
2013-03-13 16:29:00,30.3,13.0,30.18,WSW,256,3.0,6.0,48,0.00,,SKC,0.00,VWS V14.01,2013-03-13 21:29:00,
2013-03-13 16:30:00,30.3,13.0,30.19,West,268,0.0,4.0,48,0.00,,SKC,0.00,VWS V14.01,2013-03-13 21:30:00,
2013-03-13 16:34:00,30.1,12.8,30.18,WNW,297,2.0,4.0,48,0.00,,SKC,0.00,VWS V14.01,2013-03-13 21:34:00,
2013-03-13 16:35:00,30.2,12.9,30.19,West,273,1.0,4.0,48,0.00,,SKC,0.00,VWS V14.01,2013-03-13 21:35:00,
2013-03-13 16:39:00,30.3,13.4,30.18,West,275,3.0,3.0,49,0.00,,SKC,0.00,VWS V14.01,2013-03-13 21:39:00,
2013-03-13 16:40:00,30.2,13.8,30.19,West,268,2.0,3.0,50,0.00,,SKC,0.00,VWS V14.01,2013-03-13 21:40:00,
2013-03-13 16:44:00,30.2,13.4,30.18,West,260,1.0,3.0,49,0.00,,SKC,0.00,VWS V14.01,2013-03-13 21:44:00,
2013-03-13 16:45:00,29.9,12.1,30.19,WNW,284,1.0,6.0,47,0.00,,SKC,0.00,VWS V14.01,2013-03-13 21:45:00,
2013-03-13 16:49:00,30.3,13.9,30.18,WNW,296,1.0,6.0,50,0.00,,SKC,0.00,VWS V14.01,2013-03-13 21:49:00,
2013-03-13 16:50:00,29.9,13.1,30.19,WNW,295,1.0,5.0,49,0.00,,SKC,0.00,VWS V14.01,2013-03-13 21:50:00,
2013-03-13 16:54:00,30.3,13.0,30.18,West,280,5.0,6.0,48,0.00,,SKC,0.00,VWS V14.01,2013-03-13 21:54:00,
2013-03-13 16:55:00,29.9,13.1,30.19,West,269,1.0,4.0,49,0.00,,SKC,0.00,VWS V14.01,2013-03-13 21:55:00,
2013-03-13 16:59:00,30.1,12.8,30.18,WNW,292,1.0,3.0,48,0.00,,SKC,0.00,VWS V14.01,2013-03-13 21:59:00,
2013-03-13 17:00:00,29.8,12.0,30.19,West,266,1.0,4.0,47,0.00,,SKC,0.00,VWS V14.01,2013-03-13 22:00:00,
2013-03-13 17:04:00,30.2,12.9,30.18,West,268,1.0,3.0,48,0.00,,SKC,0.00,VWS V14.01,2013-03-13 22:04:00,
2013-03-13 17:05:00,29.5,11.8,30.19,WNW,302,2.0,3.0,47,0.00,,SKC,0.00,VWS V14.01,2013-03-13 22:05:00,
2013-03-13 17:09:00,30.2,12.4,30.18,West,261,2.0,5.0,47,0.00,,SKC,0.00,VWS V14.01,2013-03-13 22:09:00,
2013-03-13 17:10:00,29.3,13.4,30.19,West,279,2.0,6.0,51,0.00,,SKC,0.00,VWS V14.01,2013-03-13 22:10:00,
2013-03-13 17:14:00,30.2,12.4,30.18,WNW,299,2.0,5.0,47,0.00,,SKC,0.00,VWS V14.01,2013-03-13 22:14:00,
2013-03-13 17:15:00,29.3,12.1,30.19,West,265,1.0,4.0,48,0.00,,SKC,0.00,VWS V14.01,2013-03-13 22:15:00,
2013-03-13 17:19:00,30.2,11.9,30.19,WNW,294,2.0,5.0,46,0.00,,SKC,0.00,VWS V14.01,2013-03-13 22:19:00,
2013-03-13 17:20:00,29.0,11.3,30.19,West,260,3.0,4.0,47,0.00,,SKC,0.00,VWS V14.01,2013-03-13 22:20:00,
2013-03-13 17:24:00,30.3,13.0,30.19,West,279,2.0,3.0,48,0.00,,SKC,0.00,VWS V14.01,2013-03-13 22:24:00,
2013-03-13 17:25:00,28.8,12.1,30.19,West,280,3.0,3.0,49,0.00,,SKC,0.00,VWS V14.01,2013-03-13 22:25:00,
2013-03-13 17:29:00,30.3,12.5,30.19,NNW,346,2.0,4.0,47,0.00,,SKC,0.00,VWS V14.01,2013-03-13 22:29:00,
2013-03-13 17:30:00,28.6,11.4,30.19,West,273,1.0,3.0,48,0.00,,SKC,0.00,VWS V14.01,2013-03-13 22:30:00,
2013-03-13 17:34:00,30.2,12.4,30.19,West,272,1.0,4.0,47,0.00,,SKC,0.00,VWS V14.01,2013-03-13 22:34:00,
2013-03-13 17:35:00,28.5,9.9,30.19,WSW,244,1.0,4.0,45,0.00,,SKC,0.00,VWS V14.01,2013-03-13 22:35:00,
2013-03-13 17:39:00,30.2,14.3,30.19,WNW,286,2.0,2.0,51,0.00,,SKC,0.00,VWS V14.01,2013-03-13 22:39:00,
2013-03-13 17:40:00,28.2,10.6,30.19,West,275,0.0,3.0,47,0.00,,SKC,0.00,VWS V14.01,2013-03-13 22:40:00,
2013-03-13 17:44:00,30.1,12.8,30.19,West,275,4.0,6.0,48,0.00,,SKC,0.00,VWS V14.01,2013-03-13 22:44:00,
2013-03-13 17:45:00,27.8,10.7,30.19,West,280,2.0,3.0,48,0.00,,SKC,0.00,VWS V14.01,2013-03-13 22:45:00,
2013-03-13 17:49:00,29.8,12.5,30.19,West,261,1.0,2.0,48,0.00,,SKC,0.00,VWS V14.01,2013-03-13 22:49:00,
2013-03-13 17:50:00,27.5,10.4,30.19,West,260,1.0,3.0,48,0.00,,SKC,0.00,VWS V14.01,2013-03-13 22:50:00,
2013-03-13 17:54:00,29.9,13.5,30.19,WNW,282,0.0,2.0,50,0.00,,SKC,0.00,VWS V14.01,2013-03-13 22:54:00,
2013-03-13 17:55:00,27.1,10.0,30.19,West,273,1.0,2.0,48,0.00,,SKC,0.00,VWS V14.01,2013-03-13 22:55:00,
2013-03-13 17:59:00,29.9,12.1,30.19,WSW,258,1.0,3.0,47,0.00,,SKC,0.00,VWS V14.01,2013-03-13 22:59:00,
2013-03-13 18:00:00,26.9,9.9,30.19,West,277,0.0,2.0,48,0.00,,SKC,0.00,VWS V14.01,2013-03-13 23:00:00,
2013-03-13 18:04:00,29.7,11.9,30.19,WSW,256,2.0,2.0,47,0.00,,SKC,0.00,VWS V14.01,2013-03-13 23:04:00,
2013-03-13 18:05:00,26.6,10.0,30.19,West,280,0.0,2.0,49,0.00,,SKC,0.00,VWS V14.01,2013-03-13 23:05:00,
2013-03-13 18:09:00,29.4,11.7,30.19,WSW,256,2.0,3.0,47,0.00,,SKC,0.00,VWS V14.01,2013-03-13 23:09:00,
2013-03-13 18:10:00,26.4,10.7,30.19,West,277,2.0,2.0,51,0.00,,SKC,0.00,VWS V14.01,2013-03-13 23:10:00,
2013-03-13 18:14:00,29.3,11.6,30.19,West,279,1.0,3.0,47,0.00,,SKC,0.00,VWS V14.01,2013-03-13 23:14:00,
2013-03-13 18:15:00,26.1,10.9,30.19,West,267,0.0,2.0,52,0.00,,SKC,0.00,VWS V14.01,2013-03-13 23:15:00,
2013-03-13 18:19:00,29.2,12.0,30.19,West,280,2.0,2.0,48,0.00,,SKC,0.00,VWS V14.01,2013-03-13 23:19:00,
2013-03-13 18:20:00,25.9,9.4,30.19,WNW,284,0.0,2.0,49,0.00,,SKC,0.00,VWS V14.01,2013-03-13 23:20:00,
2013-03-13 18:24:00,28.9,10.7,30.19,West,267,1.0,3.0,46,0.00,,SKC,0.00,VWS V14.01,2013-03-13 23:24:00,
2013-03-13 18:25:00,25.9,9.4,30.19,West,268,1.0,2.0,49,0.00,,SKC,0.00,VWS V14.01,2013-03-13 23:25:00,
2013-03-13 18:29:00,28.7,11.0,30.19,West,277,1.0,3.0,47,0.00,,SKC,0.00,VWS V14.01,2013-03-13 23:29:00,
2013-03-13 18:30:00,25.6,9.6,30.20,West,275,0.0,1.0,50,0.00,,SKC,0.00,VWS V14.01,2013-03-13 23:30:00,
2013-03-13 18:34:00,28.6,10.9,30.19,WNW,286,3.0,3.0,47,0.00,,SKC,0.00,VWS V14.01,2013-03-13 23:34:00,
2013-03-13 18:35:00,25.4,9.4,30.20,West,272,1.0,2.0,50,0.00,,SKC,0.00,VWS V14.01,2013-03-13 23:35:00,
2013-03-13 18:39:00,28.3,10.7,30.19,West,276,1.0,3.0,47,0.00,,SKC,0.00,VWS V14.01,2013-03-13 23:39:00,
2013-03-13 18:40:00,25.2,9.2,30.20,West,277,0.0,2.0,50,0.00,,SKC,0.00,VWS V14.01,2013-03-13 23:40:00,
2013-03-13 18:44:00,28.0,10.9,30.19,WNW,283,1.0,3.0,48,0.00,,SKC,0.00,VWS V14.01,2013-03-13 23:44:00,
2013-03-13 18:45:00,25.0,9.0,30.20,West,277,0.0,1.0,50,0.00,,SKC,0.00,VWS V14.01,2013-03-13 23:45:00,
2013-03-13 18:49:00,27.7,10.6,30.19,WNW,297,1.0,2.0,48,0.00,,SKC,0.00,VWS V14.01,2013-03-13 23:49:00,
2013-03-13 18:50:00,24.8,8.8,30.20,West,277,0.0,0.0,50,0.00,,SKC,0.00,VWS V14.01,2013-03-13 23:50:00,
2013-03-13 18:54:00,27.3,10.7,30.19,West,269,0.0,1.0,49,0.00,,SKC,0.00,VWS V14.01,2013-03-13 23:54:00,
2013-03-13 18:55:00,24.5,9.0,30.20,West,277,0.0,0.0,51,0.00,,SKC,0.00,VWS V14.01,2013-03-13 23:55:00,
2013-03-13 18:59:00,27.0,10.9,30.19,West,275,0.0,2.0,50,0.00,,SKC,0.00,VWS V14.01,2013-03-13 23:59:00,
2013-03-13 19:00:00,23.9,10.1,30.19,West,277,0.0,0.0,55,0.00,,SKC,0.00,VWS V14.01,2013-03-14 00:00:00,
2013-03-13 19:04:00,26.8,10.7,30.19,West,270,0.0,1.0,50,0.00,,SKC,0.00,VWS V14.01,2013-03-14 00:04:00,
2013-03-13 19:05:00,23.3,9.5,30.19,West,277,0.0,0.0,55,0.00,,SKC,0.00,VWS V14.01,2013-03-14 00:05:00,
2013-03-13 19:09:00,26.6,10.0,30.19,West,276,0.0,1.0,49,0.00,,SKC,0.00,VWS V14.01,2013-03-14 00:09:00,
2013-03-13 19:10:00,22.8,8.7,30.19,West,277,0.0,0.0,54,0.00,,SKC,0.00,VWS V14.01,2013-03-14 00:10:00,
2013-03-13 19:14:00,26.3,10.2,30.19,West,267,1.0,2.0,50,0.00,,SKC,0.00,VWS V14.01,2013-03-14 00:14:00,
2013-03-13 19:15:00,22.5,8.8,30.19,West,277,0.0,0.0,55,0.00,,SKC,0.00,VWS V14.01,2013-03-14 00:15:00,
2013-03-13 19:19:00,25.9,10.3,30.19,West,279,1.0,2.0,51,0.00,,SKC,0.00,VWS V14.01,2013-03-14 00:19:00,
2013-03-13 19:20:00,22.3,9.4,30.19,West,277,0.0,0.0,57,0.00,,SKC,0.00,VWS V14.01,2013-03-14 00:20:00,
2013-03-13 19:24:00,25.9,9.4,30.19,West,277,1.0,2.0,49,0.00,,SKC,0.00,VWS V14.01,2013-03-14 00:24:00,
2013-03-13 19:25:00,22.0,9.9,30.19,West,277,0.0,0.0,59,0.00,,SKC,0.00,VWS V14.01,2013-03-14 00:25:00,
2013-03-13 19:29:00,25.8,9.7,30.19,West,272,0.0,1.0,50,0.00,,SKC,0.00,VWS V14.01,2013-03-14 00:29:00,
2013-03-13 19:30:00,21.6,9.5,30.18,West,277,0.0,0.0,59,0.00,,SKC,0.00,VWS V14.01,2013-03-14 00:30:00,
2013-03-13 19:34:00,25.5,9.5,30.20,West,280,0.0,1.0,50,0.00,,SKC,0.00,VWS V14.01,2013-03-14 00:34:00,
2013-03-13 19:35:00,21.1,10.1,30.18,West,277,0.0,0.0,62,0.00,,SKC,0.00,VWS V14.01,2013-03-14 00:35:00,
2013-03-13 19:40:00,25.3,9.7,30.20,West,277,0.0,2.0,51,0.00,,SKC,0.00,VWS V14.01,2013-03-14 00:40:00,
2013-03-13 19:45:00,25.1,9.1,30.20,West,277,0.0,1.0,50,0.00,,SKC,0.00,VWS V14.01,2013-03-14 00:45:00,
2013-03-13 19:50:00,25.0,9.0,30.20,West,277,0.0,0.0,50,0.00,,SKC,0.00,VWS V14.01,2013-03-14 00:50:00,
2013-03-13 19:55:00,24.7,8.7,30.20,West,277,0.0,0.0,50,0.00,,SKC,0.00,VWS V14.01,2013-03-14 00:55:00,
2013-03-13 20:00:00,24.2,9.1,30.20,West,277,0.0,0.0,52,0.00,,SKC,0.00,VWS V14.01,2013-03-14 01:00:00,
2013-03-13 20:05:00,23.6,9.8,30.19,West,277,0.0,0.0,55,0.00,,SKC,0.00,VWS V14.01,2013-03-14 01:05:00,
2013-03-13 20:10:00,22.9,9.2,30.19,West,277,0.0,0.0,55,0.00,,SKC,0.00,VWS V14.01,2013-03-14 01:10:00,
2013-03-13 20:15:00,22.6,8.5,30.19,West,277,0.0,0.0,54,0.00,,SKC,0.00,VWS V14.01,2013-03-14 01:15:00,
2013-03-13 20:20:00,22.4,9.5,30.19,West,277,0.0,0.0,57,0.00,,SKC,0.00,VWS V14.01,2013-03-14 01:20:00,
2013-03-13 20:25:00,22.1,9.6,30.19,West,277,0.0,0.0,58,0.00,,SKC,0.00,VWS V14.01,2013-03-14 01:25:00,
2013-03-13 20:30:00,21.8,9.7,30.19,West,277,0.0,0.0,59,0.00,,SKC,0.00,VWS V14.01,2013-03-14 01:30:00,
2013-03-13 20:35:00,21.3,10.0,30.18,West,277,0.0,0.0,61,0.00,,SKC,0.00,VWS V14.01,2013-03-14 01:35:00,
2013-03-13 20:40:00,20.9,10.3,30.18,West,277,0.0,0.0,63,0.00,,SKC,0.00,VWS V14.01,2013-03-14 01:40:00,
2013-03-13 20:45:00,20.5,10.6,30.18,West,277,0.0,0.0,65,0.00,,SKC,0.00,VWS V14.01,2013-03-14 01:45:00,
2013-03-13 20:50:00,20.0,10.8,30.19,West,277,0.0,0.0,67,0.00,,SKC,0.00,VWS V14.01,2013-03-14 01:50:00,
2013-03-13 20:55:00,19.6,11.4,30.19,West,277,0.0,0.0,70,0.00,,SKC,0.00,VWS V14.01,2013-03-14 01:55:00,
2013-03-13 21:00:00,19.0,10.8,30.19,West,277,0.0,0.0,70,0.00,,SKC,0.00,VWS V14.01,2013-03-14 02:00:00,
2013-03-13 21:05:00,18.4,10.3,30.19,West,277,0.0,0.0,70,0.00,,SKC,0.00,VWS V14.01,2013-03-14 02:05:00,
2013-03-13 21:10:00,18.0,10.5,30.19,West,277,0.0,0.0,72,0.00,,SKC,0.00,VWS V14.01,2013-03-14 02:10:00,
2013-03-13 21:15:00,17.7,9.6,30.19,West,277,0.0,0.0,70,0.00,,SKC,0.00,VWS V14.01,2013-03-14 02:15:00,
2013-03-13 21:20:00,17.3,9.8,30.19,West,277,0.0,0.0,72,0.00,,SKC,0.00,VWS V14.01,2013-03-14 02:20:00,
2013-03-13 21:25:00,17.0,10.8,30.19,West,277,0.0,0.0,76,0.00,,SKC,0.00,VWS V14.01,2013-03-14 02:25:00,
2013-03-13 21:30:00,16.7,10.5,30.19,West,277,0.0,0.0,76,0.00,,SKC,0.00,VWS V14.01,2013-03-14 02:30:00,
2013-03-13 21:35:00,16.4,10.5,30.19,West,277,0.0,0.0,77,0.00,,SKC,0.00,VWS V14.01,2013-03-14 02:35:00,
2013-03-13 21:40:00,16.0,10.6,30.19,West,277,0.0,0.0,79,0.00,,SKC,0.00,VWS V14.01,2013-03-14 02:40:00,
2013-03-13 21:45:00,15.7,10.1,30.19,West,277,0.0,0.0,78,0.00,,SKC,0.00,VWS V14.01,2013-03-14 02:45:00,
2013-03-13 21:50:00,15.3,9.4,30.20,West,277,0.0,0.0,77,0.00,,SKC,0.00,VWS V14.01,2013-03-14 02:50:00,
2013-03-13 21:55:00,15.1,9.8,30.20,West,277,0.0,0.0,79,0.00,,SKC,0.00,VWS V14.01,2013-03-14 02:55:00,
2013-03-13 21:57:00,10.9,7.3,30.20,West,277,0.0,0.0,85,0.00,,SKC,0.00,VWS V14.01,2013-03-14 02:57:00,
2013-03-13 21:58:00,10.9,7.3,30.20,West,277,0.0,0.0,85,0.00,,SKC,0.00,VWS V14.01,2013-03-14 02:58:00,
2013-03-13 21:59:00,10.9,7.5,30.20,West,277,0.0,0.0,86,0.00,,SKC,0.00,VWS V14.01,2013-03-14 02:59:00,
2013-03-13 22:00:00,14.9,9.9,30.20,West,277,0.0,0.0,80,0.00,,SKC,0.00,VWS V14.01,2013-03-14 03:00:00,
2013-03-13 22:01:00,10.9,7.5,30.20,West,277,0.0,0.0,86,0.00,,SKC,0.00,VWS V14.01,2013-03-14 03:01:00,
2013-03-13 22:02:00,10.9,7.5,30.20,West,277,0.0,0.0,86,0.00,,SKC,0.00,VWS V14.01,2013-03-14 03:02:00,
2013-03-13 22:03:00,10.9,7.5,30.20,West,277,0.0,0.0,86,0.00,,SKC,0.00,VWS V14.01,2013-03-14 03:03:00,
2013-03-13 22:04:00,11.0,7.6,30.20,West,277,0.0,0.0,86,0.00,,SKC,0.00,VWS V14.01,2013-03-14 03:04:00,
2013-03-13 22:05:00,14.4,9.4,30.20,West,277,0.0,0.0,80,0.00,,SKC,0.00,VWS V14.01,2013-03-14 03:05:00,
2013-03-13 22:06:00,10.9,7.5,30.20,West,277,0.0,0.0,86,0.00,,SKC,0.00,VWS V14.01,2013-03-14 03:06:00,
2013-03-13 22:10:00,14.0,9.5,30.20,West,277,0.0,0.0,82,0.00,,SKC,0.00,VWS V14.01,2013-03-14 03:10:00,
2013-03-13 22:15:00,13.8,9.6,30.20,West,277,0.0,0.0,83,0.00,,SKC,0.00,VWS V14.01,2013-03-14 03:15:00,
2013-03-13 22:20:00,13.5,9.3,30.20,West,277,0.0,0.0,83,0.00,,SKC,0.00,VWS V14.01,2013-03-14 03:20:00,
2013-03-13 22:25:00,13.1,8.9,30.20,West,277,0.0,0.0,83,0.00,,SKC,0.00,VWS V14.01,2013-03-14 03:25:00,
2013-03-13 22:30:00,12.7,8.8,30.20,West,277,0.0,0.0,84,0.00,,SKC,0.00,VWS V14.01,2013-03-14 03:30:00,
2013-03-13 22:35:00,12.3,8.4,30.20,West,277,0.0,0.0,84,0.00,,SKC,0.00,VWS V14.01,2013-03-14 03:35:00,
2013-03-13 22:40:00,12.1,8.2,30.20,West,277,0.0,0.0,84,0.00,,SKC,0.00,VWS V14.01,2013-03-14 03:40:00,
2013-03-13 22:45:00,11.7,8.1,30.20,West,277,0.0,0.0,85,0.00,,SKC,0.00,VWS V14.01,2013-03-14 03:45:00,
2013-03-13 22:50:00,11.5,7.9,30.20,West,277,0.0,0.0,85,0.00,,SKC,0.00,VWS V14.01,2013-03-14 03:50:00,
2013-03-13 22:55:00,11.0,7.1,30.20,West,277,0.0,0.0,84,0.00,,SKC,0.00,VWS V14.01,2013-03-14 03:55:00,
2013-03-13 23:00:00,8.9,6.3,30.20,West,277,0.0,0.0,89,0.00,,SKC,0.00,VWS V14.01,2013-03-14 04:00:00,
2013-03-13 23:05:00,10.9,7.5,30.20,West,277,0.0,0.0,86,0.00,,SKC,0.00,VWS V14.01,2013-03-14 04:05:00,
2013-03-13 23:10:00,10.9,7.5,30.20,West,277,0.0,0.0,86,0.00,,SKC,0.00,VWS V14.01,2013-03-14 04:10:00,
2013-03-13 23:15:00,10.5,6.9,30.20,West,277,0.0,0.0,85,0.00,,SKC,0.00,VWS V14.01,2013-03-14 04:15:00,
2013-03-13 23:20:00,10.2,6.6,30.20,West,277,0.0,0.0,85,0.00,,SKC,0.00,VWS V14.01,2013-03-14 04:20:00,
2013-03-13 23:25:00,10.0,6.7,30.20,West,277,0.0,0.0,86,0.00,,SKC,0.00,VWS V14.01,2013-03-14 04:25:00,
2013-03-13 23:30:00,9.7,6.4,30.20,West,277,0.0,0.0,86,0.00,,SKC,0.00,VWS V14.01,2013-03-14 04:30:00,
2013-03-13 23:35:00,9.4,5.8,30.20,West,277,0.0,0.0,85,0.00,,SKC,0.00,VWS V14.01,2013-03-14 04:35:00,
2013-03-13 23:40:00,9.0,5.7,30.20,West,277,0.0,0.0,86,0.00,,SKC,0.00,VWS V14.01,2013-03-14 04:40:00,
2013-03-13 23:45:00,8.7,5.4,30.20,West,277,0.0,0.0,86,0.00,,SKC,0.00,VWS V14.01,2013-03-14 04:45:00,
2013-03-13 23:50:00,8.5,5.4,30.20,West,277,0.0,0.0,87,0.00,,SKC,0.00,VWS V14.01,2013-03-14 04:50:00,
2013-03-13 23:55:00,8.5,5.7,30.20,West,277,0.0,0.0,88,0.00,,SKC,0.00,VWS V14.01,2013-03-14 04:55:00,